Flag for Germany Weather past 2 weeks in Eberswalde, Brandenburg, Germany

Now
41 °F

Clear.


Feels Like: 41 °F
Forecast: 38 / 59 °F
Wind: 1 mph from North

Location: Berlin-Tegel


UV Index: 3 (Moderate)

Visibility: 10 mi


Pressure: 30.39 "Hg

Humidity: 61%

Dew point: 28 °F

Location of EberswaldeLocation

Historic Weather in Eberswalde

°F

Eberswalde temperature yesterday

Maximum temperature yesterday: 54 °F (at 2:50 PM)
Minimum temperature yesterday: 34 °F (at 5:20 AM)
Average temperature yesterday: 46 °F

Past Weeks' High & Low Weather Summary

 TemperatureHumidityPressure
High72 °F (Apr 3, 4:50 PM)100% (Apr 12, 3:20 AM)30.45 "Hg (Apr 12, 3:20 AM)
Low34 °F (Apr 16, 5:20 AM)26% (Apr 16, 3:20 PM)29.65 "Hg (Apr 3, 3:50 AM)
Average51 °F69%29.98 "Hg
* Reported Apr 1 11:20 PM — Apr 16 11:20 PM, Eberswalde, Weather by CustomWeather, © 2014

Note: Actual official high and low records may vary slightly from our data, if they occured in-between our weather recording intervals... More about our weather records

Advertising

Historic Weather Conditions — Data for Previous 24 hours

 ConditionsComfort  
Time TempWeatherWind HumidityBarometerVisibility
11:20 PM
Apr 16
41 °FClear.No wind66%30.39 "Hg10 mi
10:50 PM45 °FClear.2 mph53%30.39 "Hg10 mi
10:20 PM45 °FClear.2 mph49%30.42 "Hg10 mi
9:50 PM45 °FClear.2 mph53%30.42 "Hg10 mi
9:20 PM46 °FClear.1 mph46%30.42 "Hg10 mi
8:50 PM48 °FSunny.1 mph40%30.42 "Hg10 mi
8:20 PM50 °FSunny.2 mph32%30.39 "Hg10 mi
7:50 PM52 °FSunny.1 mph32%30.39 "Hg10 mi
7:20 PM54 °FSunny.2 mph28%30.39 "Hg10 mi
6:50 PM54 °FSunny.2 mph28%30.39 "Hg10 mi
6:20 PM54 °FSunny.1 mph30%30.39 "Hg10 mi
5:50 PM54 °FSunny.1 mph33%30.42 "Hg10 mi
5:20 PM54 °FSunny.3 mph28%30.42 "Hg10 mi
4:50 PM54 °FSunny.2 mph26%30.42 "Hg10 mi
4:20 PM54 °FSunny.7 mph33%30.42 "Hg10 mi
3:50 PM54 °FSunny.6 mph30%30.42 "Hg10 mi
3:20 PM54 °FSunny.3 mph26%30.42 "Hg10 mi
2:50 PM54 °FSunny.1 mph28%30.45 "Hg10 mi
2:20 PM52 °FSunny.7 mph32%30.45 "Hg10 mi
1:50 PM52 °FPassing clouds.6 mph30%30.45 "HgN/A
1:20 PM52 °FPassing clouds.6 mph32%30.45 "HgN/A
12:50 PM52 °FSunny.6 mph28%30.45 "Hg10 mi
12:20 PM52 °FSunny.3 mph30%30.45 "Hg10 mi
11:50 AM50 °FSunny.2 mph35%30.45 "Hg10 mi
11:20 AM50 °FSunny.2 mph40%30.45 "Hg10 mi
10:50 AM48 °FPassing clouds.5 mph46%30.45 "HgN/A
10:20 AM48 °FPassing clouds.5 mph43%30.45 "HgN/A
9:50 AM46 °FSunny.6 mph53%30.45 "Hg10 mi
9:20 AM45 °FSunny.6 mph66%30.45 "Hg10 mi
8:50 AM45 °FPassing clouds.5 mph76%30.45 "HgN/A
8:20 AM41 °FSunny.5 mph87%30.42 "Hg10 mi
7:50 AM37 °FSunny.2 mph100%30.42 "Hg10 mi
7:20 AM34 °FPassing clouds.2 mph100%30.42 "HgN/A
6:50 AM34 °FFog.2 mph100%30.42 "HgN/A
6:20 AM34 °FFog.2 mph100%30.39 "HgN/A
5:50 AM34 °FFog.2 mph100%30.39 "HgN/A
5:20 AM34 °FFog.1 mph100%30.36 "HgN/A
4:50 AM36 °FClear.2 mph93%30.36 "Hg10 mi
4:20 AM37 °FClear.3 mph93%30.36 "Hg10 mi
3:50 AM37 °FClear.2 mph93%30.36 "Hg10 mi
3:20 AM37 °FClear.3 mph93%30.33 "Hg10 mi
2:50 AM39 °FClear.5 mph93%30.33 "Hg10 mi
12:50 AM41 °FPassing clouds.5 mph87%30.30 "HgN/A
12:20 AM41 °FClear.5 mph87%30.27 "Hg10 mi
Weather by CustomWeather, © 2014

See weather overview